Weather in Duşak

Turkmenistan     37°11′28″N   60°00′48″E
temp.,
°C
wind,
m/s
gust,
m/s
humid.,
%
clouds,
%
prec.,
mm/h
press.,
hPa
HPBL,
m
7 march, sun
sun723:00+6w118164 0.0 102322
02:00+6e228112 0.0 102230
05:00+5se45816 0.0 1020100
08:00+5ese610810 0.0 1020211
11:00+12ese88530 0.0 1018533
14:00+17ese55350 0.0 1014773
17:00+19e44260 0.0 1012971
20:00+15ese343727 0.0 101337
8 march, mon
mon823:00+12ene115151 0.0 101523
02:00+11w234856 0.0 101623
05:00+10wnw7135128 0.0 1018243
08:00+8wnw69570 0.0 1021232
11:00+11nw455730 0.0 1022658
14:00+14nne2244100 0.0 10191022
17:00+15e453795 0.0 10171321
20:00+14se464198 0.0 1016125
9 march, tue
tue923:00+14se6113999 0.0 1015344
02:00+13se91339100 0.0 1012289
05:00+11se4644100 0.0 1010130
08:00+10wsw1251100 0.0 100927
11:00+16wnw4536100 0.0 1008421
14:00+19nw9102928 0.0 1007978
17:00+19nw10122823 0.0 10081366
20:00+14wnw5104520 0.0 1012300
10 march, wed
wed1023:00+12wnw6105323 0.0 1016356
02:00+11wnw475699 0.1 1017335
05:00+9nnw476798 0.1 1019274
08:00+8nnw5663100 0.0 1021613
11:00+8n3358100 0.0 1022777
14:00+10ne3253100 0.0 10201006
17:00+11ne2250100 0.0 10191132
20:00+10e335196 0.0 1020976
11 march, thu
thu1123:00+8ese455855 0.0 1020105
02:00+8ese59610 0.0 1019197
05:00+7ese59640 0.0 1017173
08:00+8ese610610 0.0 1017212
11:00+14ese810410 0.0 1015560
14:00+19ese893156 0.0 1011812
17:00+22e782366 0.0 1008881
20:00+16ese5735100 0.0 1007143